{"data":{"norad_id":69163,"intl_designator":"2026-111R","name":"STARLINK-37196","alt_names":[],"object_type":"PAYLOAD","status":"ACTIVE","operator":null,"country":"US","launch_date":"2026-05-21","launch_site_code":"AFETR","launch_vehicle":null,"mission":null,"orbit_class":"UNKNOWN","rcs_meters":null,"size_class":null,"mass_kg":null,"dimensions":null,"purposes":["comms"],"wikipedia_slug":null,"has_3d_model":false,"image_url":null,"decayed_at":null,"tle_current":{"epoch":"2026-09-20T00:15:27.937728Z","epoch_age_seconds":69307,"freshness":"FRESH","line1":"1 69163U 26111R   26263.01074002  .00021705  00000+0  65184-3 0  9990","line2":"2 69163  53.1578  68.0028 0000857  84.6178 275.4923 15.34391028 18821","mean_motion":15.34391028,"eccentricity":8.57e-5,"inclination_deg":53.1578,"raan_deg":68.0028,"arg_perigee_deg":84.6178,"mean_anomaly_deg":275.4923,"bstar":0.00065184,"rev_number":1882,"period_min":93.848306834599,"perigee_km":462.14364471788,"apogee_km":463.31616930574,"semimajor_km":6840.8669070118,"source":"CELESTRAK","updated_at":"2026-09-20T09:00:44.092386Z"}}}